Location: Doverdale
(52.2833°N, 2.2000°W)
Time: 01:50:43
(UTC+00:00)

Cosmos 1980 Rocket - Pass Details

Date: 09 March 2021
Orbit: 828 x 851 km, 71.0° (Epoch: 15 April)

Event Time Altitude Azimuth Distance (km) Brightness Sun altitude
Rises 00:38:19 0° 329° (NNW) 3,430 5.9 -42.0°
Reaches altitude 10° 00:40:51 10° 335° (NNW) 2,491 5.1 -42.0°
Enters shadow 00:42:09 17° 340° (NNW) 2,037 4.6 -42.0°
